Location: La Tine
(46.4708°N, 7.0525°E)
Time: 10:24:42
(UTC+00:00)

CENTAUR R/B - Pass Details

Date: 18 September 2020
Orbit: 755 x 1433 km, 63.4° (Epoch: 02 October)

Event Time Altitude Azimuth Distance (km) Brightness Sun altitude
Rises 21:14:33 0° 317° (NW) 4,207 6.9 -34.1°
Reaches altitude 10° 21:17:23 10° 311° (NW) 3,317 6.0 -34.4°
Maximum altitude 21:25:01 43° 244° (WSW) 1,861 3.9 -35.3°
Enters shadow 21:25:43 43° 232° (SW) 1,887 3.8 -35.3°
